sat.trackr.live / text

‹ back to catalog

STARLINK-35747

NORAD 66207 · 2025-244B

PAYLOAD ACTIVE UNKNOWN

§ Identity

Operator
Country
US
Launch date
2025-10-28
Launch site
AFWTR
Launch vehicle
Mass (kg)
RCS (m²)

Purposes: comms

External: N2YO · Heavens-Above · Gunter

§ Orbital elements

Epoch: 2026-09-20T13:45:20.032128Z

Period
93.85 min
Inclination
53.1585°
Eccentricity
0.0001219
Mean motion
15.34398931 rev/d
Perigee alt
461.9 km
Apogee alt
463.5 km
Semi-major
6,840.8 km
B*
7.2077e-4
RAAN
41.3447°
Arg perigee
94.8980°
Mean anomaly
265.2162°
Rev number
5,154

§ Raw data

STARLINK-357471 66207U 25244B   26263.57314852  .00024054  00000+0  72077-3 0  99922 66207  53.1585  41.3447 0001219  94.8980 265.2162 15.34398931 51549

JSON: /api/v1/satellites/66207 · /tle

For live sub-satellite position, see the globe view (requires WebGL).

§ Visibility from observer

Set your observer location to see the next 7 days of passes ≥ 10°. The values pass through the URL so the page stays shareable.

No JS? Fill the form by hand. The geolocation button needs JavaScript.